Lapse_Rate
8.2 8.4 9.0 9.2 9.2 9.2 9.2 9.3 9.1 8.7 9.3 9.3 9.3 9.3 9.4 9.4 9.3 8.5 6.9 7.4 6.4 6.6 7.0 6.7 6.4 6.8 6.8 6.8 6.5 6.4 6.6 6.5 6.5 6.5 6.5 6.5 6.5 6.5 6.5 6.5 6.5 6.5 6.5 6.5 6.5 6.5 6.5 6.1 6.0 6.5 6.4 5.4 5.8 4.6
7.4 8.7 8.6 9.2 9.1 9.1 9.2 9.1 8.1 8.0 9.0 9.2 9.3 9.3 9.2 8.2 7.9 9.0 7.4 7.7 7.3 6.8 6.0 7.1 7.1 5.8 5.0 5.5 6.7 6.8 6.6 6.6 6.7 6.5 6.5 6.5 6.5 6.5 6.5 6.5 6.5 6.5 6.5 6.5 6.5 6.5 6.4 6.3 6.2 6.2 5.6 5.9 5.6 4.3
5.4 6.1 8.5 8.4 8.0 7.5 7.6 7.6 7.4 7.4 7.9 8.1 7.6 6.9 6.6 6.6 6.8 8.3 7.2 6.2 6.2 6.9 6.1 7.0 6.5 6.3 5.4 4.9 4.8 6.5 6.6 6.0 6.6 6.3 6.5 6.5 6.5 6.5 6.5 6.5 6.5 6.5 6.5 6.5 6.5 6.5 6.5 6.5 6.6 6.2 5.7 4.6 4.3 4.7
5.3 5.7 6.6 6.7 6.9 7.0 6.9 7.0 7.1 7.1 7.1 6.7 6.4 6.1 6.1 6.6 7.8 8.2 6.8 6.3 6.5 6.5 6.6 5.2 7.0 6.8 7.0 7.2 5.7 4.9 5.6 5.5 5.7 6.2 6.5 6.5 6.5 6.2 6.5 6.5 6.5 6.5 6.5 6.5 6.5 6.5 6.5 6.4 6.5 6.6 6.1 5.8 5.5 5.4
5.5 5.5 6.4 6.4 6.8 6.8 6.8 6.7 6.6 6.5 6.5 6.1 6.2 5.8 6.0 6.5 6.9 7.4 6.1 6.1 6.6 6.7 6.3 5.8 5.4 6.6 6.6 6.6 7.0 7.0 7.3 6.0 6.5 6.4 6.5 6.5 6.5 6.5 6.5 6.5 6.5 6.6 6.5 6.5 6.5 6.7 6.6 6.5 6.7 6.7 6.3 6.3 6.3 5.9
5.7 5.8 5.7 6.3 6.9 6.8 6.6 6.5 6.3 6.2 6.1 5.8 6.0 5.7 5.7 6.0 6.7 6.3 6.5 6.3 6.1 7.4 6.8 6.5 5.8 4.1 4.8 5.9 6.5 6.5 6.3 5.9 6.2 6.5 6.5 6.6 6.5 6.5 6.5 6.5 6.6 7.1 7.0 7.0 6.6 6.2 5.5 5.0 5.7 6.3 6.4 6.6 6.3 5.8
5.5 5.6 5.8 6.4 7.1 6.8 6.5 6.2 6.0 5.8 5.4 5.4 5.7 5.7 5.6 6.0 5.1 5.3 5.5 5.4 6.4 5.5 6.5 6.2 6.3 4.7 4.4 5.9 6.0 5.3 6.4 5.3 6.1 6.5 6.5 6.5 6.6 6.7 6.5 6.5 6.6 7.0 6.5 6.6 6.4 6.1 5.5 5.4 6.1 6.1 5.8 5.6 5.7 5.4
5.4 5.5 5.7 6.0 6.8 6.9 6.7 5.9 5.8 5.4 4.9 4.9 5.3 5.5 5.4 6.2 5.7 5.0 5.1 5.6 5.9 6.6 5.0 6.5 6.5 6.2 5.9 5.3 5.5 4.2 6.5 5.2 4.8 6.3 6.3 6.5 6.8 6.7 6.5 6.6 6.9 6.6 5.8 6.6 5.4 5.3 5.3 5.5 5.0 5.2 5.2 5.0 5.0 5.1
5.2 5.5 5.7 5.9 6.4 7.0 6.9 6.1 5.7 5.0 4.6 4.2 4.7 5.8 4.9 3.4 3.1 3.7 5.5 6.1 6.1 5.0 3.8 5.0 6.5 6.5 6.3 5.6 5.4 5.3 6.3 6.5 5.1 6.5 6.5 6.7 6.5 6.5 6.5 6.7 6.8 6.4 6.4 6.5 6.3 6.2 6.0 5.9 6.0 5.8 5.0 4.4 4.3 4.5
5.0 5.4 5.8 5.9 6.4 6.9 6.6 6.3 5.8 4.7 4.5 4.0 3.4 3.6 3.3 3.5 5.3 5.5 3.7 3.5 4.0 4.3 4.6 5.2 5.6 6.5 6.4 6.1 5.5 6.1 5.0 6.5 6.5 6.5 6.7 6.5 6.5 6.9 7.1 6.9 6.6 6.3 4.8 6.1 6.5 6.6 6.2 6.1 5.6 5.0 4.8 4.4 4.0 4.0
5.2 5.3 5.7 6.0 6.6 6.9 6.4 6.4 5.7 4.6 3.8 2.5 2.4 2.0 3.1 4.4 3.4 2.4 2.8 4.8 3.6 4.8 6.2 5.7 5.5 6.5 6.5 6.5 6.5 6.5 6.5 6.5 6.5 6.5 6.5 6.5 6.5 6.6 7.0 6.8 6.5 6.0 5.1 4.4 4.6 5.1 5.6 5.2 4.6 4.1 4.1 3.9 4.7 4.5
5.6 5.5 5.8 6.1 6.9 6.9 6.4 5.9 5.3 3.1 3.3 3.7 3.9 4.1 3.0 2.7 0.8 5.8 6.5 4.6 6.3 6.5 6.3 4.9 6.2 6.5 6.4 7.1 6.5 5.8 6.5 6.5 6.5 6.4 6.5 6.5 6.5 7.0 6.8 6.7 6.2 6.1 5.4 4.3 4.1 4.5 4.6 4.2 3.6 3.2 2.9 2.5 2.2 2.5
6.1 5.8 6.0 6.3 6.9 6.7 6.5 5.3 4.8 3.7 3.8 3.9 2.0 0.5 1.8 2.3 6.5 6.5 6.5 6.5 6.5 5.1 4.4 6.5 6.4 5.3 5.9 6.6 5.4 6.5 6.5 6.5 6.5 6.5 6.5 6.5 6.9 6.9 6.5 6.1 5.6 5.2 5.0 4.7 4.5 4.3 4.0 3.5 3.2 2.8 2.6 3.0 3.0 2.1
6.6 6.1 6.3 6.6 6.9 6.5 5.9 4.9 4.0 2.8 1.8 0.7 1.5 6.5 6.2 6.5 6.5 6.4 6.4 6.3 4.8 5.3 6.8 6.9 6.2 5.5 5.5 6.1 6.4 6.5 6.5 6.6 6.5 6.5 6.5 6.5 6.8 6.7 6.5 6.0 4.9 4.9 4.6 4.4 4.3 4.0 3.5 3.0 2.9 3.1 2.8 2.2 1.9 2.0
6.9 6.5 6.7 6.6 6.4 6.0 4.7 4.5 3.1 1.4 0.9 0.8 1.6 6.5 6.5 4.2 3.0 2.8 2.5 3.7 5.3 4.0 5.5 6.0 5.6 6.4 6.3 6.5 6.5 6.5 6.5 6.5 6.5 6.5 6.5 6.9 6.8 6.5 6.0 5.6 5.0 4.4 4.2 4.2 4.1 4.0 4.1 3.9 2.8 1.8 2.0 2.1 2.4 2.6
7.3 7.4 6.2 6.0 6.5 5.6 3.5 3.1 1.9 1.1 -1.6 0.8 2.4 5.1 5.1 3.9 3.3 3.0 3.4 3.7 3.0 2.9 3.8 5.9 5.3 6.5 6.5 6.5 6.5 6.5 6.5 6.5 6.5 6.5 7.0 7.0 6.6 6.1 5.8 5.5 4.9 4.4 4.1 4.1 3.8 3.7 3.5 2.5 2.4 2.5 2.4 2.0 1.8 1.7
7.5 6.2 5.7 5.7 6.0 3.9 2.3 2.1 1.3 -1.1 0.2 1.7 2.5 3.3 2.6 2.4 2.3 2.5 1.9 2.2 2.3 2.7 5.9 3.9 6.5 6.5 5.2 6.5 6.5 6.5 6.5 6.5 6.9 7.1 7.2 6.7 6.4 6.3 6.1 6.0 5.6 5.1 4.4 4.1 3.8 3.6 3.1 2.8 3.2 3.0 2.1 1.9 2.2 2.1
6.0 6.1 6.2 5.4 5.0 3.7 -0.4 -0.8 0.7 0.1 2.1 1.0 3.6 2.3 2.7 1.5 2.8 2.5 1.5 1.2 1.7 3.1 4.1 5.9 4.7 6.5 6.5 6.5 6.5 6.3 6.2 6.6 6.8 6.7 6.6 6.8 6.3 6.2 6.4 5.7 5.2 4.7 4.1 3.8 3.8 3.9 4.0 4.1 3.6 3.6 2.8 2.5 2.0 2.1
5.7 5.9 5.2 4.4 3.3 2.7 1.4 -0.7 -0.7 1.5 1.2 1.4 1.8 1.7 2.4 2.3 0.5 0.2 0.9 1.2 1.3 2.4 2.5 4.2 6.5 6.5 6.5 5.0 4.9 4.7 5.0 6.8 6.5 6.7 6.1 5.4 5.3 5.4 5.6 5.5 5.3 4.7 4.4 4.3 4.7 4.3 3.5 2.4 2.3 2.6 2.9 2.9 2.9 2.5
6.4 4.7 3.8 2.5 3.0 3.1 1.9 0.1 -1.2 2.8 1.9 2.6 2.2 2.4 2.3 2.5 1.0 1.0 1.1 1.6 2.4 2.9 3.1 5.9 5.9 4.7 4.0 4.0 4.8 5.1 6.2 6.6 5.3 6.2 6.8 6.0 5.2 5.1 4.8 5.0 4.9 5.0 4.7 4.7 5.2 5.8 4.1 3.7 3.3 2.8 2.9 3.2 0.8 1.5
2.3 1.8 0.6 -0.1 -0.5 -0.2 0.6 0.4 1.6 2.0 2.3 2.6 0.7 1.8 2.4 1.9 2.3 2.1 1.7 1.0 1.8 1.0 2.6 3.8 3.7 3.9 3.9 3.5 3.5 4.2 5.2 4.7 4.1 5.7 6.3 6.9 5.5 5.5 5.2 4.8 4.7 5.1 5.4 5.7 5.2 4.5 3.8 2.6 2.2 2.4 2.7 2.7 2.3 1.7
1.4 1.0 -0.1 0.6 0.8 -0.1 -0.0 -0.8 2.7 1.6 3.3 1.1 1.2 1.5 2.9 3.0 2.7 1.4 -1.2 0.7 1.4 2.5 2.3 2.5 3.0 3.2 4.2 2.6 2.3 3.0 3.7 3.3 3.8 5.2 7.2 6.6 6.4 6.1 5.6 4.7 5.0 5.3 5.3 4.6 4.0 3.3 2.8 2.7 3.4 3.1 2.1 1.4 2.0 0.5
1.1 1.1 0.7 1.4 2.5 3.5 2.6 0.4 4.2 3.5 6.5 3.1 1.1 4.3 3.1 2.2 1.0 -0.4 1.8 1.1 1.6 1.0 1.5 2.0 1.2 -0.2 1.0 1.3 1.9 2.5 3.4 3.3 4.0 4.1 4.4 4.7 5.4 5.3 5.0 4.3 3.6 4.5 5.0 3.8 2.8 2.0 1.9 4.8 2.4 3.0 1.1 1.4 1.4 0.6
1.1 2.5 3.5 3.4 5.3 5.7 2.4 5.1 4.3 5.8 5.7 5.5 6.3 6.5 5.8 2.6 1.1 2.5 6.5 2.6 2.3 2.1 2.8 0.4 0.8 2.3 2.6 2.4 2.9 4.4 3.9 3.3 3.7 4.0 3.5 3.4 5.1 4.6 3.7 3.4 2.9 2.9 3.3 3.1 2.7 2.0 1.8 1.3 3.6 0.4 0.3 -0.4 0.0 0.8
4.2 4.6 4.4 6.3 3.6 5.7 6.5 6.5 6.6 6.6 6.5 6.5 6.5 6.5 5.8 2.0 6.5 6.5 6.5 1.7 1.9 1.6 2.2 1.5 1.9 1.8 2.0 2.8 2.7 2.7 0.5 0.6 0.8 1.5 3.1 3.2 3.1 3.7 4.2 3.8 3.1 3.1 3.2 2.1 2.1 2.0 1.2 0.2 -0.6 -0.3 -0.6 -0.6 1.0 2.6
6.5 4.4 6.0 6.5 6.0 6.4 6.5 6.5 6.5 6.5 6.5 6.5 6.5 5.1 3.5 5.3 6.5 6.5 5.5 2.0 1.3 1.2 2.0 2.1 2.1 2.5 2.6 0.9 0.8 1.7 1.6 -0.4 -1.1 -0.0 2.4 3.2 2.9 3.0 3.4 4.1 4.0 3.6 1.6 0.6 0.2 -0.0 -0.0 0.5 0.4 -0.5 0.4 1.1 5.6 3.8
6.5 6.5 4.8 4.2 5.4 5.4 6.3 6.3 6.0 6.4 6.5 6.5 6.5 6.5 6.5 6.5 6.5 5.3 1.7 0.9 0.8 0.0 -0.3 -0.3 -0.2 0.1 0.4 1.5 2.1 1.8 0.3 -1.5 -1.1 -0.7 0.6 2.0 2.8 2.7 2.2 2.4 3.1 3.5 2.0 0.7 0.6 1.4 1.8 2.0 2.0 2.4 2.2 2.0 1.5 1.9
5.3 5.3 6.5 5.7 6.1 5.2 6.5 6.5 6.5 6.5 6.5 6.2 6.6 6.5 6.5 6.5 6.5 3.4 2.2 -0.1 -0.9 -1.1 -2.3 -2.2 -1.0 -0.9 -0.4 -0.1 -0.8 -0.7 -1.4 -1.5 -1.3 -1.1 -0.1 1.5 1.4 1.6 1.6 1.4 2.6 5.7 5.5 4.0 4.1 3.3 3.6 4.0 4.0 3.2 3.6 3.8 4.9 1.3
6.2 5.9 5.6 6.6 6.1 6.0 6.4 6.5 6.5 5.7 5.4 6.4 6.5 6.5 6.1 4.0 2.2 1.3 0.7 -1.4 -2.5 -1.4 -2.1 -1.2 -0.4 -2.3 -2.0 -2.2 -3.0 -3.1 -2.7 -1.9 0.2 1.8 2.5 3.3 3.3 2.8 1.7 2.0 2.0 1.7 1.8 1.8 5.6 7.3 6.1 6.7 6.1 6.3 6.4 4.8 1.8 -0.5
6.3 6.1 6.5 6.5 6.5 6.5 5.7 4.1 4.9 4.0 3.8 3.2 4.0 4.3 4.4 3.4 1.2 -0.2 -0.2 -1.6 -1.3 -2.0 -2.1 -2.1 -2.4 -2.5 -2.0 -2.1 -2.2 -1.9 -2.7 -2.8 -2.5 -0.6 0.5 1.5 1.2 -0.7 -1.3 -0.8 0.4 1.2 2.3 3.2 1.8 1.0 5.3 2.5 3.1 0.7 1.5 1.3 0.5 0.4
5.7 6.2 6.1 6.5 6.7 5.8 4.4 3.8 4.6 4.1 3.2 3.0 2.6 4.1 3.6 1.6 1.7 0.2 -0.2 -1.1 -2.6 -3.5 -2.5 -2.0 -2.5 -4.1 -2.9 -2.8 -3.2 -2.5 -1.1 -2.5 -3.5 -3.5 -3.7 -3.5 -2.5 -1.0 0.1 0.8 1.6 2.0 2.4 2.4 1.8 1.6 0.8 1.1 -0.1 0.7 1.0 0.9 0.6 4.3
5.6 6.2 6.7 6.5 6.7 4.9 4.4 4.9 4.9 5.2 4.7 5.1 3.9 2.2 2.0 1.9 1.7 1.1 -0.1 -1.8 -2.4 -1.4 1.3 -0.9 -2.0 -1.1 -1.9 -3.4 -4.4 -4.3 3.2 -1.8 -3.1 -3.4 -2.6 -1.7 -0.4 1.1 2.5 3.0 3.3 3.2 3.4 1.5 1.1 1.7 1.7 2.2 3.0 2.7 4.2 3.2 3.1 2.6
5.6 5.7 6.1 6.2 6.3 6.6 5.1 5.8 6.0 5.9 5.4 5.3 5.0 3.3 1.9 2.8 2.7 1.1 -0.5 -2.0 -1.3 -0.2 0.4 -0.9 -2.4 -2.8 -3.2 -4.2 -4.7 -4.4 0.8 -2.1 -0.2 4.2 6.3 8.0 9.2 8.2 8.1 7.6 7.0 6.4 5.1 4.2 3.4 2.1 3.4 3.3 3.8 4.1 4.2 3.6 2.9 2.3
Wind_Speed
28 30 31 33 34 35 36 37 38 37 38 38 39 37 32 25 19 6 5 5 1 2 9 3 2 5 3 2 4 7 7 2 3 2 3 3 3 5 4 6 7 8 7 5 4 5 9 6 4 8 2 4 4 3
28 30 31 33 35 36 37 38 38 39 40 39 39 37 31 23 16 12 2 2 2 4 5 3 9 4 4 3 4 3 4 5 3 4 3 3 1 2 4 4 1 4 4 6 6 4 4 5 5 2 1 2 4 8
25 28 31 33 35 36 38 39 40 41 40 41 39 35 28 21 15 8 2 3 3 2 4 2 3 4 5 5 4 2 2 4 3 1 3 3 3 3 2 1 4 2 5 3 5 4 4 6 5 5 5 6 8 12
25 27 30 32 34 36 38 39 41 43 43 43 39 32 25 19 13 6 3 3 1 3 3 3 2 3 4 6 6 5 6 6 4 2 3 2 3 4 2 2 4 4 7 4 3 3 2 6 5 6 9 10 11 13
25 27 29 32 34 36 38 40 41 43 44 43 37 28 21 18 13 6 6 3 7 2 3 5 11 1 5 12 6 8 7 5 2 2 1 2 3 5 1 3 4 6 5 3 3 8 3 3 4 7 11 12 12 17
24 27 29 31 34 35 37 40 42 43 43 41 33 24 18 18 8 3 2 2 13 3 2 3 3 5 9 14 8 6 3 2 2 2 1 2 3 5 2 3 8 12 9 6 3 5 7 6 8 8 14 14 16 18
23 25 28 31 33 35 36 39 42 44 45 41 29 19 13 14 6 3 2 6 18 1 2 4 5 5 6 9 4 3 4 1 1 2 3 2 4 5 3 3 15 15 13 9 3 1 4 8 6 11 16 18 21 19
22 24 27 29 32 34 36 38 41 43 46 39 28 12 8 5 4 2 2 22 13 2 2 3 5 7 8 4 4 2 3 2 3 2 2 3 3 4 4 11 13 14 14 7 5 4 7 9 12 12 14 17 19 17
20 22 26 28 31 33 35 37 39 42 44 32 23 4 2 4 4 3 25 15 6 4 3 3 6 5 8 3 3 3 2 2 1 2 2 2 4 6 9 12 13 15 9 5 7 9 11 14 14 14 16 17 19 15
18 21 24 27 29 31 32 36 39 42 34 22 9 4 3 2 24 14 3 4 5 4 4 2 3 3 6 4 3 6 3 2 2 2 1 4 3 4 11 10 10 11 10 6 8 10 12 13 15 16 17 14 15 15
18 19 22 25 27 28 30 35 37 34 13 4 5 3 3 19 2 4 4 4 4 4 4 3 4 8 4 3 4 3 3 2 2 3 3 3 3 6 11 11 10 10 9 11 13 13 11 12 13 15 16 16 15 15
18 18 20 23 25 25 27 31 33 9 1 5 4 4 3 5 4 7 4 5 5 4 6 3 7 6 4 3 3 3 3 3 3 5 3 3 3 6 9 10 11 10 11 15 15 14 13 14 12 14 14 13 13 13
17 17 19 21 22 20 25 27 28 17 7 1 2 5 4 4 10 5 6 5 4 5 3 8 10 3 3 3 3 3 3 3 6 3 3 3 5 6 7 8 10 11 11 13 14 12 13 15 15 14 14 11 11 12
17 17 17 19 20 16 20 22 19 10 4 3 4 7 4 4 1 2 1 2 3 3 8 8 4 3 3 3 2 3 3 3 5 4 4 4 6 6 6 7 8 10 11 12 12 12 13 13 13 13 11 9 9 10
17 17 18 19 8 14 15 17 9 6 3 3 4 2 1 2 1 1 1 1 2 2 4 4 3 3 3 4 1 4 7 4 5 3 4 4 5 6 7 7 7 8 8 9 9 10 10 10 9 10 9 7 7 7
15 16 4 1 8 11 12 6 4 2 3 3 3 3 1 1 2 2 1 1 2 3 2 1 3 3 2 4 5 5 4 4 3 3 5 4 5 5 5 5 5 6 7 7 8 8 8 7 7 6 6 7 7 6
15 4 7 2 5 3 12 2 2 4 3 3 1 1 2 2 3 2 2 0 1 2 2 2 4 2 4 4 2 3 2 3 4 4 3 4 4 4 3 4 5 5 5 6 5 6 5 3 4 6 7 5 4 4
5 6 7 2 2 3 2 4 2 3 2 2 2 3 2 1 3 2 2 2 2 1 1 2 0 3 1 2 2 1 2 4 1 2 3 4 4 4 4 3 4 4 4 4 3 2 3 4 5 4 4 4 2 3
7 11 9 7 4 3 2 2 2 3 2 1 2 1 2 2 2 3 3 2 1 1 1 0 1 2 1 1 1 2 2 3 4 5 1 1 3 3 3 2 3 3 3 3 4 3 3 3 2 2 3 3 2 2
13 14 14 10 4 2 2 1 1 3 3 2 2 2 2 2 2 2 2 1 1 2 2 2 3 2 2 1 1 1 3 3 4 5 2 1 1 2 3 3 2 1 2 1 1 5 2 1 2 2 3 3 3 3
9 9 11 6 2 4 3 2 2 1 2 1 1 1 2 1 1 1 1 0 2 2 2 2 1 1 2 0 0 0 3 2 2 2 3 3 1 1 1 1 1 1 1 2 2 3 5 3 3 3 3 2 2 2
3 11 3 2 2 2 3 2 2 2 1 1 1 0 1 2 2 2 1 1 2 3 2 2 2 1 1 2 2 1 2 3 5 4 6 4 1 0 1 2 2 1 2 3 3 3 2 2 3 1 2 3 4 3
13 4 3 3 3 3 2 1 3 2 2 2 2 2 1 1 2 1 1 2 2 2 2 2 2 3 3 2 2 3 3 2 2 2 3 2 1 1 1 1 2 1 1 1 1 1 1 5 5 2 2 3 2 3
5 3 4 5 3 4 2 2 1 3 1 2 3 3 2 3 1 1 2 2 2 3 3 4 3 2 2 2 2 1 2 1 3 2 1 2 2 1 1 1 1 1 1 1 0 1 1 2 6 3 3 3 3 3
6 5 5 4 1 4 5 5 4 3 4 3 3 2 2 2 2 2 3 3 2 3 3 3 2 2 2 1 1 1 3 2 0 1 1 1 1 1 1 1 1 1 0 1 2 2 2 3 3 3 3 3 5 6
6 5 9 8 3 5 6 6 7 6 4 4 2 2 2 2 2 5 3 3 3 3 4 4 4 2 2 3 2 0 2 2 2 1 2 1 1 0 1 1 1 1 1 1 0 2 3 3 3 5 5 7 12 7
7 5 2 1 2 4 3 2 2 2 5 5 4 5 3 3 5 3 1 1 2 2 3 3 3 3 3 1 0 1 1 3 4 3 1 1 2 2 2 2 2 1 2 3 3 3 4 4 5 5 5 5 4 5
3 4 7 6 3 0 4 4 6 6 4 3 6 5 7 6 4 2 2 1 3 3 3 2 2 2 2 1 1 0 2 1 2 2 2 2 2 2 2 1 5 9 4 4 5 4 5 6 6 6 7 6 7 3
3 4 4 4 3 3 3 3 5 2 1 4 4 3 3 2 1 2 1 2 3 3 3 2 1 1 1 1 1 2 2 1 2 1 2 1 0 1 2 2 3 3 5 4 12 10 7 7 8 7 5 2 4 3
3 1 3 3 4 3 2 3 2 1 2 2 1 2 1 1 1 1 3 3 3 3 3 3 3 3 2 2 2 3 2 3 3 3 3 3 3 2 2 3 4 4 4 4 4 5 12 5 6 4 5 4 3 3
1 2 3 4 3 2 2 2 1 2 2 2 3 2 2 1 1 1 2 2 3 3 3 1 1 2 3 2 2 1 3 2 3 4 3 3 3 4 4 4 6 7 3 4 4 4 3 4 3 5 5 6 7 6
3 3 2 3 2 0 1 1 1 2 2 1 2 2 2 2 2 2 2 3 3 2 5 4 3 3 4 3 3 3 8 2 3 3 6 4 4 6 10 10 10 7 5 4 4 4 5 6 5 5 6 7 6 5
2 2 3 4 3 2 1 1 2 2 2 2 2 1 1 0 4 2 1 1 3 3 4 3 3 3 4 4 4 3 4 4 7 9 11 13 15 15 13 8 7 4 4 4 4 4 6 7 7 7 6 6 5 5
Wind_Direction
350 351 349 350 349 349 348 347 347 346 345 345 344 342 341 339 335 331 280 219 178 262 292 270 285 295 294 285 301 311 317 24 291 247 202 223 229 213 123 155 170 167 168 184 184 192 243 162 43 161 207 329 335 94
351 350 351 350 349 348 348 347 346 345 344 344 344 343 341 339 337 330 285 88 259 243 260 308 279 226 223 267 297 306 283 299 336 321 337 312 322 359 164 175 307 163 185 171 184 187 23 23 44 35 285 112 20 105
350 347 349 349 348 347 348 347 345 345 344 344 345 345 346 342 336 321 300 352 287 277 286 255 206 216 207 220 196 284 277 332 274 322 303 298 258 2 167 163 101 53 4 111 137 11 22 11 24 25 53 89 88 112
346 345 346 346 346 346 347 347 345 344 345 345 346 348 350 348 350 355 62 340 326 290 288 277 167 258 243 245 239 214 275 271 254 247 255 300 329 338 20 69 64 337 327 3 63 32 31 24 29 76 87 91 94 102
342 344 343 342 344 345 345 344 344 343 344 345 346 351 354 352 350 93 107 73 43 14 297 297 307 226 301 334 292 223 268 292 296 302 307 343 16 331 353 97 45 356 0 359 54 349 342 39 44 89 99 104 109 112
337 341 341 341 341 342 343 343 342 343 344 345 347 351 357 353 352 190 159 206 4 343 267 297 297 357 341 338 311 321 320 315 295 331 351 50 6 316 45 71 14 351 335 316 304 335 51 40 50 93 107 107 100 100
332 337 338 338 340 340 342 342 341 342 342 345 345 349 2 12 20 60 104 324 334 346 272 299 333 352 340 320 325 349 309 306 328 8 27 22 14 11 38 38 336 332 321 324 335 350 13 11 86 88 97 95 93 91
327 333 334 336 340 341 342 342 342 342 340 343 342 346 5 29 114 88 3 343 343 300 30 39 314 323 13 319 319 346 330 301 9 41 45 17 28 35 51 337 333 327 326 4 26 42 106 104 86 83 92 100 94 92
322 329 330 334 338 340 343 342 343 343 338 340 337 335 62 32 14 309 314 315 354 50 81 64 352 321 356 298 291 321 299 325 327 31 39 45 35 45 336 330 334 334 333 360 57 75 86 86 86 87 91 86 88 88
317 326 329 332 334 340 344 343 344 343 338 343 9 25 3 356 322 312 8 23 20 13 25 55 344 300 340 324 287 347 316 321 339 45 333 59 82 64 360 344 338 343 3 1 76 71 82 81 83 79 78 84 88 89
311 321 326 329 332 341 342 345 346 344 4 6 14 353 296 311 9 28 33 42 342 28 10 346 11 329 288 307 303 297 316 305 324 3 1 55 42 359 352 359 2 8 29 56 63 57 64 85 94 92 84 83 85 84
303 313 320 326 332 341 341 347 349 358 32 296 295 300 325 19 19 65 10 353 22 355 346 355 333 305 288 281 280 314 294 296 6 321 32 60 33 360 359 4 10 23 40 57 56 60 62 70 75 82 82 80 76 76
295 305 313 321 329 335 340 343 345 341 332 227 41 41 43 331 36 60 354 323 336 343 330 334 328 288 304 255 280 312 307 352 308 45 62 34 2 5 8 9 20 27 39 55 58 57 61 67 64 69 76 70 76 72
286 295 304 312 319 327 338 341 346 352 52 66 46 18 80 0 104 172 204 252 292 324 321 324 292 302 310 299 330 312 325 38 12 42 41 13 14 8 11 19 30 27 34 45 51 53 55 55 58 57 57 60 70 73
279 289 296 304 303 335 338 340 351 32 68 79 66 99 85 181 161 128 152 329 317 334 326 310 292 238 279 297 5 345 356 61 32 24 358 3 17 20 18 22 28 31 33 40 40 49 54 55 58 59 48 51 61 72
273 290 260 302 332 342 346 350 19 68 47 76 76 87 90 96 209 166 162 279 51 316 271 219 277 308 349 322 21 16 338 43 3 336 348 7 27 28 31 29 32 34 39 43 44 48 49 45 53 65 58 48 51 52
254 224 171 203 341 15 17 71 65 47 117 90 199 13 99 86 158 138 129 93 341 355 20 344 4 272 301 357 55 15 25 352 328 337 13 14 20 16 28 47 49 54 55 53 54 49 49 24 45 58 54 27 35 52
229 193 178 135 25 77 41 20 70 87 102 209 162 174 110 68 127 125 126 79 48 48 4 196 351 346 300 330 6 30 355 333 322 352 4 356 10 19 40 53 60 66 69 64 68 59 13 37 52 47 38 355 41 33
195 174 158 129 152 100 79 22 33 152 198 155 89 61 85 101 80 113 108 114 114 57 85 156 236 229 251 87 349 331 341 335 318 315 280 8 2 11 34 54 70 67 60 47 53 57 65 57 51 9 356 354 37 13
230 131 134 122 155 121 92 2 258 126 177 206 73 130 106 103 109 108 113 87 173 149 62 195 213 176 183 228 126 267 306 324 305 308 213 134 27 23 28 12 33 46 80 51 113 86 47 78 39 7 330 31 45 350
120 134 99 88 55 51 65 131 99 55 137 135 86 155 139 140 138 142 142 217 82 185 226 207 184 165 108 251 135 344 292 356 297 304 310 309 58 356 29 31 350 341 45 59 77 39 53 37 357 347 350 329 295 294
118 128 102 83 97 77 83 5 75 111 111 107 106 150 184 175 168 183 209 98 215 210 180 170 175 125 259 201 202 201 284 293 276 277 323 349 326 304 52 10 334 32 55 55 48 43 22 338 299 337 326 286 341 303
117 113 94 137 119 168 154 244 150 137 178 220 61 131 248 193 202 101 240 217 247 201 150 156 167 181 200 263 203 252 215 285 304 333 338 332 322 26 352 23 339 321 136 79 41 19 331 339 332 352 340 338 314 314
89 106 149 178 170 140 158 137 113 131 133 201 178 206 223 182 161 81 245 224 214 137 164 187 169 221 209 232 232 153 127 283 287 261 158 316 329 53 0 347 334 2 44 85 290 296 324 313 348 332 313 317 312 301
126 190 164 163 117 134 157 152 162 174 219 180 166 196 194 132 123 210 229 242 167 180 177 172 191 192 182 188 152 151 185 137 161 293 274 183 294 258 201 158 142 125 135 35 13 353 317 322 315 308 308 305 289 290
200 180 183 163 147 184 164 159 185 186 145 165 181 108 164 119 124 238 227 186 166 163 174 183 183 176 208 169 164 235 196 168 134 211 253 160 173 216 309 297 203 200 209 156 185 314 306 298 294 301 299 304 320 336
205 170 147 5 108 110 102 77 81 167 177 178 163 166 157 181 229 238 165 171 132 182 137 138 142 154 168 155 116 164 138 166 184 211 235 266 244 216 211 217 203 164 220 222 236 237 261 282 285 280 278 283 264 261
98 150 159 168 128 286 134 163 177 187 169 150 137 180 184 198 219 162 143 116 115 108 103 100 118 136 143 177 190 239 300 274 279 262 277 248 211 209 209 229 257 277 310 290 249 235 242 250 260 265 271 272 284 263
102 130 117 117 131 171 185 184 182 103 51 167 176 174 183 60 72 127 133 130 110 113 116 136 257 120 343 311 245 214 208 185 104 197 245 243 164 251 201 224 246 261 265 259 293 299 275 262 255 258 269 259 257 261
116 142 101 128 148 143 71 351 62 71 42 52 33 109 95 80 75 40 99 105 123 169 190 170 162 130 179 142 290 316 250 188 169 158 177 208 219 249 266 264 270 264 255 262 265 285 307 327 321 342 330 318 310 293
51 99 81 55 76 43 32 337 13 66 48 52 7 48 81 305 295 180 158 161 142 114 112 140 236 204 164 204 195 238 306 273 196 218 222 229 256 266 266 261 257 255 250 248 252 260 265 303 274 278 280 279 282 304
37 45 112 105 97 72 284 26 47 61 33 55 38 20 1 29 310 249 197 113 107 143 213 169 162 241 213 216 214 221 251 215 207 219 234 257 265 262 269 269 265 247 238 240 247 251 260 264 271 264 275 274 278 282
98 75 90 115 122 144 108 102 51 80 41 50 32 11 8 191 243 261 296 129 162 183 193 201 206 197 212 219 221 239 261 243 268 267 260 265 281 281 273 265 250 215 225 244 253 259 274 276 275 272 273 275 275 280